Location: Tel Aviv
(32.0670°N, 34.7670°E)
Time: 12:10:32
(UTC+03:00)

Transit 2A - Pass Details

Date: 27 January 2022
Orbit: 598 x 960 km, 66.7° (Epoch: 20 May)

Event Time Altitude Azimuth Distance (km) Brightness Sun altitude
Rises 10:18:30 0° 211° (SSW) 3,427 9.7 34.6°
Reaches altitude 10° 10:20:55 10° 214° (SSW) 2,539 9.2 34.8°
Maximum altitude 10:26:51 69° 297° (WNW) 994 6.9 35.4°
Drops below altitude 10° 10:33:11 10° 20° (NNE) 2,691 8.6 36.0°
Sets 10:35:48 0° 23° (NNE) 3,646 9.2 36.2°
